Flag for U.S.A. Weather past 2 weeks in Livonia, Michigan, U.S.A.

29 °F

Partly cloudy.

Feels Like: 23 °F
Forecast: 31 / 46 °F
Wind: 6 mph from North

Location: Detroit Metropolitan Wayne County Airport

Current Time: Nov 30, 2015 at 1:55:46 AM

Latest Report: Nov 30, 2015 at 12:53 AM

Visibility: 7 mi

Pressure: 30.36 "Hg

Humidity: 89%

Dew point: 26 °F

Location of LivoniaLocation

Historic Weather in Livonia — Graph


Livonia temperature yesterday

Maximum temperature yesterday: 39 °F (at 1:53 PM)
Minimum temperature yesterday: 24 °F (at 5:53 AM)
Average temperature yesterday: 31 °F

Past Weeks' High & Low Weather Summary

High65 °F (Nov 15, 2:53 PM)97% (Nov 18, 2:53 PM)30.47 "Hg (Nov 18, 2:53 PM)
Low21 °F (Nov 22, 10:53 PM)24% (Nov 19, 5:53 PM)29.70 "Hg (Nov 18, 6:53 PM)
Average42 °F68%30.20 "Hg
* Reported Nov 14 11:53 PM — Nov 29 11:53 PM, Livonia, Weather by CustomWeather, © 2015

Note: Actual official high and low records may vary slightly from our data, if they occured in-between our weather recording intervals... More about our weather records


Livonia weather history for previous 24 hours

Time TempWeatherWind HumidityBarometerVisibility
11:53 PM
Sun, Nov 29
29 °FPassing clouds.3 mph89%30.37 "Hg8 mi
10:53 PM30 °FPassing clouds.No wind85%30.37 "Hg10 mi
9:53 PM31 °FPassing clouds.No wind85%30.39 "Hg7 mi
8:53 PM33 °FPassing clouds.3 mph78%30.38 "Hg7 mi
7:53 PM33 °FPassing clouds.No wind78%30.39 "Hg7 mi
6:53 PM33 °FPartly cloudy.3 mph75%30.40 "Hg8 mi
5:53 PM33 °FPassing clouds.5 mph75%30.38 "Hg10 mi
4:53 PM35 °FPartly sunny.5 mph70%30.37 "Hg10 mi
3:53 PM37 °FScattered clouds.7 mph62%30.36 "Hg10 mi
2:53 PM38 °FPartly sunny.6 mph60%30.36 "Hg10 mi
1:53 PM39 °FPartly sunny.3 mph60%30.36 "Hg10 mi
12:53 PM37 °FPartly sunny.5 mph62%30.37 "Hg10 mi
11:53 AM35 °FScattered clouds.5 mph70%30.39 "Hg10 mi
10:53 AM32 °FScattered clouds.3 mph75%30.42 "Hg9 mi
9:53 AM29 °FScattered clouds.No wind79%30.41 "Hg9 mi
8:53 AM26 °FScattered clouds.No wind88%30.42 "Hg9 mi
7:53 AM25 °FScattered clouds.No wind85%30.39 "Hg10 mi
6:53 AM24 °FPassing clouds.No wind84%30.37 "Hg10 mi
5:53 AM24 °FClear.3 mph88%30.37 "Hg10 mi
4:53 AM25 °FClear.No wind88%30.37 "Hg10 mi
3:53 AM26 °FClear.3 mph88%30.36 "Hg10 mi
2:53 AM26 °FClear.3 mph88%30.37 "Hg10 mi
1:53 AM27 °FClear.3 mph89%30.37 "Hg10 mi
Weather by CustomWeather, © 2015

See weather overviewHow to use our weather pages